| time (UTC) | temp C | wind direction | speed KPH | gust KPH | rain 1hr cm | rain 24hr cm | rain mn cm | humidity % | barometer mb |
| 20260506171537 | 13 | 281 | 0.0 | 1.6 | 0.00 | 0.03 | 0.03 | 86 | 1038.3 |
| 20260506171034 | 13 | 268 | 3.2 | 4.8 | 0.00 | 0.03 | 0.03 | 85 | 1038.5 |
| 20260506170532 | 13 | 213 | 0.0 | 0.0 | 0.00 | 0.03 | 0.03 | 86 | 1038.3 |
| 20260506170029 | 13 | 254 | 0.0 | 1.6 | 0.00 | 0.03 | 0.03 | 86 | 1038.6 |
| 20260506165528 | 13 | 276 | 0.0 | 0.0 | 0.00 | 0.03 | 0.03 | 87 | 1039.1 |
| 20260506165023 | 12 | 313 | 3.2 | 3.2 | 0.00 | 0.03 | 0.03 | 86 | 1039.2 |
| 20260506164520 | 13 | 216 | 0.0 | 3.2 | 0.00 | 0.03 | 0.03 | 86 | 1038.9 |
| 20260506164018 | 13 | 232 | 0.0 | 1.6 | 0.00 | 0.03 | 0.03 | 86 | 1038.3 |
| 20260506163514 | 13 | 262 | 0.0 | 1.6 | 0.00 | 0.03 | 0.03 | 86 | 1038.5 |
| 20260506163010 | 13 | 272 | 1.6 | 1.6 | 0.00 | 0.03 | 0.03 | 87 | 1038.4 |
| 20260506162506 | 13 | 354 | 0.0 | 3.2 | 0.00 | 0.03 | 0.03 | 86 | 1038.7 |
| 20260506162003 | 13 | 279 | 1.6 | 3.2 | 0.00 | 0.03 | 0.03 | 85 | 1038.4 |
| 20260506161501 | 13 | 257 | 1.6 | 1.6 | 0.00 | 0.03 | 0.03 | 87 | 1038.2 |
| 20260506160958 | 13 | 8 | 0.0 | 3.2 | 0.00 | 0.03 | 0.03 | 87 | 1038.3 |
| 20260506160455 | 13 | 265 | 0.0 | 1.6 | 0.00 | 0.03 | 0.03 | 89 | 1038.6 |
| 20260506155952 | 13 | 178 | 0.0 | 1.6 | 0.00 | 0.03 | 0.03 | 90 | 1038.6 |
| 20260506155450 | 12 | 282 | 1.6 | 3.2 | 0.00 | 0.03 | 0.03 | 89 | 1039.0 |
| 20260506153616 | 12 | 201 | 0.0 | 1.6 | 0.00 | 0.03 | 0.03 | 90 | 1038.1 |
| 20260506153114 | 12 | 228 | 0.0 | 0.0 | 0.00 | 0.03 | 0.03 | 90 | 1037.9 |
| 20260506152611 | 12 | 258 | 0.0 | 1.6 | 0.00 | 0.03 | 0.03 | 90 | 1038.6 |
| 20260506152109 | 12 | 288 | 1.6 | 1.6 | 0.00 | 0.03 | 0.03 | 89 | 1038.7 |
| 20260506151607 | 12 | 261 | 1.6 | 4.8 | 0.00 | 0.03 | 0.03 | 88 | 1038.7 |
| 20260506151103 | 12 | 267 | 0.0 | 1.6 | 0.18 | 0.03 | 0.03 | 87 | 1039.2 |
| 20260506150600 | 12 | 253 | 0.0 | 1.6 | 0.18 | 0.03 | 0.03 | 86 | 1039.4 |
| 20260506150057 | 12 | 256 | 0.0 | 1.6 | 0.00 | 0.00 | 0.00 | 84 | 1039.4 |
| 20260506145554 | 12 | 261 | 1.6 | 3.2 | 0.00 | 0.00 | 0.00 | 83 | 1040.4 |
| 20260506145051 | 12 | 250 | 0.0 | 3.2 | 0.00 | 0.00 | 0.00 | 82 | 1040.2 |
| 20260506144548 | 12 | 222 | 0.0 | 3.2 | 0.00 | 0.00 | 0.00 | 82 | 1039.9 |
| 20260506144045 | 12 | 292 | 3.2 | 6.4 | 0.00 | 0.00 | 0.00 | 81 | 1039.8 |
| 20260506143543 | 12 | 247 | 1.6 | 1.6 | 0.00 | 0.00 | 0.00 | 81 | 1039.6 |
| 20260506143041 | 12 | 205 | 0.0 | 1.6 | 0.00 | 0.00 | 0.00 | 80 | 1039.7 |
| 20260506142538 | 12 | 228 | 0.0 | 1.6 | 0.00 | 0.00 | 0.00 | 80 | 1038.1 |
| 20260506142037 | 12 | 275 | 1.6 | 3.2 | 0.00 | 0.00 | 0.00 | 79 | 1038.5 |
| 20260506141534 | 13 | 11 | 1.6 | 4.8 | 0.00 | 0.00 | 0.00 | 79 | 1038.7 |
| 20260506141032 | 13 | 255 | 1.6 | 1.6 | 0.00 | 0.00 | 0.00 | 78 | 1038.3 |
| 20260506140529 | 13 | 246 | 0.0 | 6.4 | 0.00 | 0.00 | 0.00 | 79 | 1038.5 |
| 20260506140026 | 13 | 17 | 1.6 | 3.2 | 0.00 | 0.00 | 0.00 | 78 | 1038.1 |
| 20260506135523 | 13 | 198 | 1.6 | 3.2 | 0.00 | 0.00 | 0.00 | 78 | 1038.5 |
| 20260506135019 | 13 | 231 | 1.6 | 4.8 | 0.00 | 0.00 | 0.00 | 78 | 1038.5 |
| 20260506134516 | 13 | 32 | 1.6 | 1.6 | 0.00 | 0.00 | 0.00 | 77 | 1038.5 |
| 20260506134012 | 13 | 255 | 1.6 | 1.6 | 0.00 | 0.00 | 0.00 | 77 | 1037.9 |
| 20260506133509 | 13 | 263 | 0.0 | 6.4 | 0.00 | 0.00 | 0.00 | 76 | 1037.7 |
| 20260506133006 | 13 | 253 | 0.0 | 4.8 | 0.00 | 0.00 | 0.00 | 75 | 1037.9 |
| 20260506132503 | 13 | 236 | 1.6 | 4.8 | 0.00 | 0.00 | 0.00 | 75 | 1037.7 |
| 20260506132000 | 13 | 228 | 1.6 | 4.8 | 0.00 | 0.00 | 0.00 | 75 | 1037.9 |
| 20260506131457 | 13 | 271 | 1.6 | 3.2 | 0.00 | 0.00 | 0.00 | 75 | 1037.7 |
| 20260506130954 | 13 | 258 | 0.0 | 1.6 | 0.00 | 0.00 | 0.00 | 75 | 1037.5 |
| 20260506130450 | 13 | 252 | 0.0 | 4.8 | 0.00 | 0.00 | 0.00 | 75 | 1037.2 |
| 20260506125948 | 13 | 280 | 1.6 | 3.2 | 0.00 | 0.00 | 0.00 | 75 | 1037.2 |
| 20260506125446 | 13 | 292 | 1.6 | 3.2 | 0.00 | 0.00 | 0.00 | 74 | 1037.0 |
| 20260506124944 | 13 | 272 | 0.0 | 1.6 | 0.00 | 0.00 | 0.00 | 75 | 1037.1 |
| 20260506124441 | 13 | 263 | 0.0 | 4.8 | 0.00 | 0.00 | 0.00 | 75 | 1037.1 |
| 20260506123939 | 13 | 293 | 0.0 | 4.8 | 0.00 | 0.00 | 0.00 | 74 | 1037.1 |
| 20260506123437 | 13 | 260 | 1.6 | 3.2 | 0.00 | 0.00 | 0.00 | 74 | 1037.1 |
| 20260506122934 | 13 | 278 | 1.6 | 1.6 | 0.00 | 0.00 | 0.00 | 74 | 1036.9 |
| 20260506122431 | 13 | 207 | 0.0 | 0.0 | 0.00 | 0.00 | 0.00 | 75 | 1036.7 |
| 20260506121929 | 13 | 276 | 1.6 | 3.2 | 0.00 | 0.00 | 0.00 | 75 | 1036.7 |
| 20260506121426 | 13 | 261 | 0.0 | 1.6 | 0.00 | 0.00 | 0.00 | 75 | 1036.6 |
| 20260506120923 | 13 | 272 | 0.0 | 3.2 | 0.00 | 0.00 | 0.00 | 75 | 1036.6 |
| 20260506120420 | 13 | 247 | 1.6 | 4.8 | 0.00 | 0.00 | 0.00 | 75 | 1036.5 |
| 20260506115917 | 13 | 265 | 3.2 | 3.2 | 0.00 | 0.00 | 0.00 | 75 | 1036.4 |
| 20260506115416 | 13 | 215 | 3.2 | 6.4 | 0.00 | 0.00 | 0.00 | 76 | 1036.5 |
| 20260506114914 | 13 | 261 | 0.0 | 1.6 | 0.00 | 0.00 | 0.00 | 75 | 1036.6 |
| 20260506114411 | 14 | 265 | 3.2 | 3.2 | 0.00 | 0.00 | 0.00 | 75 | 1036.4 |
| 20260506113910 | 14 | 258 | 1.6 | 3.2 | 0.00 | 0.00 | 0.00 | 74 | 1036.4 |
| 20260506113407 | 14 | 260 | 0.0 | 3.2 | 0.00 | 0.00 | 0.00 | 74 | 1036.3 |
| 20260506112903 | 14 | 256 | 0.0 | 3.2 | 0.00 | 0.00 | 0.00 | 75 | 1036.0 |
| 20260506112401 | 14 | 243 | 0.0 | 1.6 | 0.00 | 0.00 | 0.00 | 74 | 1036.0 |
| 20260506111858 | 14 | 237 | 3.2 | 4.8 | 0.00 | 0.00 | 0.00 | 74 | 1036.0 |
| 20260506111356 | 15 | 231 | 0.0 | 3.2 | 0.00 | 0.00 | 0.00 | 74 | 1035.5 |
| 20260506110853 | 15 | 213 | 0.0 | 4.8 | 0.00 | 0.00 | 0.00 | 74 | 1036.0 |
| 20260506110350 | 15 | 273 | 0.0 | 1.6 | 0.00 | 0.00 | 0.00 | 74 | 1035.8 |
| 20260506105847 | 15 | 304 | 1.6 | 3.2 | 0.00 | 0.00 | 0.00 | 74 | 1035.7 |
| 20260506105343 | 15 | 250 | 0.0 | 1.6 | 0.00 | 0.00 | 0.00 | 75 | 1035.2 |
| 20260506104841 | 15 | 278 | 0.0 | 0.0 | 0.00 | 0.00 | 0.00 | 75 | 1035.6 |
| 20260506104338 | 15 | 303 | 0.0 | 4.8 | 0.00 | 0.00 | 0.00 | 75 | 1035.5 |
| 20260506103836 | 15 | 272 | 0.0 | 1.6 | 0.00 | 0.00 | 0.00 | 75 | 1035.0 |
| 20260506103333 | 15 | 274 | 1.6 | 3.2 | 0.00 | 0.00 | 0.00 | 75 | 1035.1 |
| 20260506102831 | 15 | 273 | 0.0 | 1.6 | 0.00 | 0.00 | 0.00 | 74 | 1034.9 |
| 20260506102328 | 15 | 261 | 0.0 | 0.0 | 0.00 | 0.00 | 0.00 | 75 | 1034.8 |
| 20260506101825 | 15 | 205 | 0.0 | 0.0 | 0.00 | 0.00 | 0.00 | 75 | 1034.9 |
| 20260506101321 | 15 | 265 | 0.0 | 0.0 | 0.00 | 0.00 | 0.00 | 74 | 1034.6 |
| 20260506100820 | 15 | 256 | 0.0 | 1.6 | 0.00 | 0.00 | 0.00 | 74 | 1034.4 |
| 20260506100318 | 15 | 313 | 3.2 | 4.8 | 0.00 | 0.00 | 0.00 | 73 | 1034.6 |
| 20260506095816 | 15 | 222 | 0.0 | 1.6 | 0.00 | 0.00 | 0.00 | 74 | 1034.4 |
| 20260506095312 | 15 | 233 | 0.0 | 1.6 | 0.00 | 0.00 | 0.00 | 73 | 1034.4 |
| 20260506094809 | 15 | 211 | 0.0 | 3.2 | 0.00 | 0.00 | 0.00 | 74 | 1034.5 |
| 20260506094308 | 15 | 171 | 1.6 | 3.2 | 0.00 | 0.00 | 0.00 | 73 | 1034.4 |
| 20260506093805 | 15 | 250 | 0.0 | 0.0 | 0.00 | 0.00 | 0.00 | 74 | 1034.2 |
| 20260506091016 | 16 | 219 | 0.0 | 1.6 | 0.00 | 0.00 | 0.00 | 73 | 1034.2 |
| 20260506090514 | 16 | 219 | 0.0 | 1.6 | 0.00 | 0.00 | 0.00 | 73 | 1034.2 |
| 20260506090010 | 16 | 260 | 0.0 | 1.6 | 0.00 | 0.00 | 0.00 | 73 | 1034.2 |
| 20260506085507 | 16 | 287 | 0.0 | 1.6 | 0.00 | 0.00 | 0.00 | 73 | 1033.9 |
| 20260506085003 | 16 | 127 | 0.0 | 1.6 | 0.00 | 0.00 | 0.00 | 74 | 1034.1 |
| 20260506084500 | 16 | 254 | 0.0 | 0.0 | 0.00 | 0.00 | 0.00 | 74 | 1034.0 |
| 20260506083956 | 16 | 237 | 1.6 | 1.6 | 0.00 | 0.00 | 0.00 | 74 | 1033.7 |
| 20260506083454 | 16 | 290 | 0.0 | 1.6 | 0.00 | 0.00 | 0.00 | 74 | 1033.6 |
| 20260506082951 | 16 | 172 | 0.0 | 0.0 | 0.00 | 0.00 | 0.00 | 74 | 1033.5 |
| 20260506082448 | 16 | 265 | 0.0 | 1.6 | 0.00 | 0.00 | 0.00 | 74 | 1033.7 |
| 20260506081943 | 16 | 287 | 0.0 | 1.6 | 0.00 | 0.00 | 0.00 | 74 | 1034.2 |
| 20260506081442 | 16 | 235 | 0.0 | 0.0 | 0.00 | 0.00 | 0.00 | 74 | 1033.9 |
| 20260506080939 | 16 | 270 | 0.0 | 1.6 | 0.00 | 0.00 | 0.00 | 74 | 1033.6 |
| 20260506080436 | 17 | 211 | 0.0 | 1.6 | 0.00 | 0.00 | 0.00 | 74 | 1033.7 |
| 20260506073420 | 17 | 213 | 0.0 | 0.0 | 0.00 | 0.00 | 0.00 | 75 | 1033.6 |
| 20260506072917 | 17 | 250 | 0.0 | 1.6 | 0.00 | 0.00 | 0.00 | 74 | 1033.4 |
| 20260506072414 | 17 | 186 | 0.0 | 3.2 | 0.00 | 0.00 | 0.00 | 75 | 1033.5 |
| 20260506071912 | 17 | 195 | 0.0 | 3.2 | 0.00 | 0.00 | 0.00 | 75 | 1033.6 |
| 20260506071410 | 17 | 322 | 1.6 | 3.2 | 0.00 | 0.00 | 0.00 | 75 | 1033.7 |
| 20260506070906 | 17 | 278 | 0.0 | 1.6 | 0.00 | 0.00 | 0.00 | 75 | 1033.6 |
| 20260506070403 | 17 | 256 | 0.0 | 6.4 | 0.00 | 0.00 | 0.00 | 75 | 1033.6 |
| 20260506062340 | 18 | 248 | 0.0 | 1.6 | 0.00 | 0.00 | 0.00 | 73 | 1033.4 |
| 20260506061836 | 18 | 244 | 0.0 | 1.6 | 0.00 | 0.00 | 0.00 | 73 | 1033.3 |
| 20260506061333 | 18 | 292 | 0.0 | 1.6 | 0.00 | 0.00 | 0.00 | 73 | 1033.3 |
| 20260506060831 | 18 | 153 | 0.0 | 1.6 | 0.00 | 0.00 | 0.00 | 73 | 1033.4 |
| 20260506060329 | 18 | 276 | 0.0 | 1.6 | 0.00 | 0.00 | 0.00 | 72 | 1033.4 |
| 20260506051301 | 19 | 246 | 0.0 | 1.6 | 0.00 | 0.00 | 0.00 | 73 | 1033.4 |
| 20260506050759 | 19 | 299 | 0.0 | 1.6 | 0.00 | 0.00 | 0.00 | 73 | 1033.5 |
| 20260506050256 | 19 | 235 | 0.0 | 1.6 | 0.00 | 0.00 | 0.00 | 73 | 1033.2 |
| 20260506044746 | 20 | 228 | 0.0 | 0.0 | 0.00 | 0.00 | 0.00 | 72 | 1033.2 |
| 20260506044244 | 20 | 266 | 0.0 | 4.8 | 0.00 | 0.00 | 0.00 | 72 | 1033.0 |
| 20260506043741 | 20 | 293 | 1.6 | 1.6 | 0.00 | 0.00 | 0.00 | 71 | 1033.1 |
| 20260506043238 | 20 | 202 | 0.0 | 6.4 | 0.00 | 0.00 | 0.00 | 71 | 1033.3 |
| 20260506042737 | 20 | 251 | 1.6 | 1.6 | 0.00 | 0.00 | 0.00 | 71 | 1033.2 |
| 20260506042235 | 21 | 248 | 1.6 | 3.2 | 0.00 | 0.00 | 0.00 | 71 | 1033.3 |
| 20260506041733 | 21 | 255 | 0.0 | 1.6 | 0.00 | 0.00 | 0.00 | 70 | 1033.3 |
| 20260506041230 | 21 | 241 | 0.0 | 1.6 | 0.00 | 0.00 | 0.00 | 70 | 1033.2 |
| 20260506040728 | 21 | 283 | 0.0 | 1.6 | 0.00 | 0.00 | 0.00 | 70 | 1033.2 |
| 20260506040224 | 21 | 213 | 0.0 | 1.6 | 0.00 | 0.00 | 0.00 | 70 | 1032.9 |
| 20260506035721 | 21 | 253 | 3.2 | 3.2 | 0.00 | 0.00 | 0.00 | 70 | 1033.0 |
| 20260506035218 | 21 | 207 | 0.0 | 1.6 | 0.00 | 0.00 | 0.00 | 69 | 1032.5 |
| 20260506034715 | 21 | 203 | 1.6 | 3.2 | 0.00 | 0.00 | 0.00 | 69 | 1032.5 |
| 20260506034212 | 21 | 267 | 0.0 | 3.2 | 0.00 | 0.00 | 0.00 | 68 | 1032.5 |
| 20260506033709 | 21 | 275 | 1.6 | 1.6 | 0.00 | 0.00 | 0.00 | 68 | 1032.5 |
| 20260506033206 | 21 | 242 | 0.0 | 4.8 | 0.00 | 0.00 | 0.00 | 67 | 1032.3 |
| 20260506032703 | 21 | 230 | 0.0 | 3.2 | 0.00 | 0.00 | 0.00 | 67 | 1032.0 |
| 20260506032200 | 21 | 301 | 0.0 | 3.2 | 0.00 | 0.00 | 0.00 | 67 | 1032.0 |
| 20260506031657 | 21 | 281 | 0.0 | 1.6 | 0.00 | 0.00 | 0.00 | 66 | 1032.1 |
| 20260506031154 | 21 | 247 | 0.0 | 1.6 | 0.00 | 0.00 | 0.00 | 67 | 1032.2 |
| 20260506030653 | 22 | 254 | 0.0 | 0.0 | 0.00 | 0.00 | 0.00 | 67 | 1032.0 |
| 20260506030149 | 22 | 251 | 0.0 | 1.6 | 0.00 | 0.00 | 0.00 | 67 | 1032.0 |
| 20260506025646 | 22 | 282 | 0.0 | 3.2 | 0.00 | 0.00 | 0.00 | 66 | 1031.9 |
| 20260506025142 | 22 | 259 | 1.6 | 4.8 | 0.00 | 0.00 | 0.00 | 66 | 1031.8 |
| 20260506024640 | 22 | 253 | 0.0 | 1.6 | 0.00 | 0.00 | 0.00 | 66 | 1031.6 |
| 20260506024136 | 22 | 260 | 0.0 | 3.2 | 0.00 | 0.00 | 0.00 | 65 | 1031.3 |
| 20260506023632 | 22 | 264 | 0.0 | 1.6 | 0.00 | 0.00 | 0.00 | 65 | 1031.5 |
| 20260506023130 | 23 | 248 | 1.6 | 9.7 | 0.00 | 0.00 | 0.00 | 66 | 1031.3 |
| 20260506022627 | 23 | 256 | 1.6 | 1.6 | 0.00 | 0.00 | 0.00 | 65 | 1030.9 |
| 20260506022124 | 23 | 257 | 1.6 | 1.6 | 0.00 | 0.00 | 0.00 | 64 | 1030.7 |
| 20260506021622 | 23 | 263 | 0.0 | 1.6 | 0.00 | 0.00 | 0.00 | 64 | 1030.8 |
| 20260506021119 | 23 | 248 | 0.0 | 0.0 | 0.00 | 0.00 | 0.00 | 64 | 1030.5 |
| 20260506020616 | 23 | 254 | 0.0 | 1.6 | 0.00 | 0.00 | 0.00 | 64 | 1030.4 |
| 20260506020114 | 24 | 277 | 0.0 | 0.0 | 0.00 | 0.00 | 0.00 | 64 | 1030.1 |
| 20260506015611 | 24 | 255 | 0.0 | 1.6 | 0.00 | 0.00 | 0.00 | 64 | 1030.2 |
| 20260506015108 | 24 | 51 | 0.0 | 1.6 | 0.00 | 0.00 | 0.00 | 63 | 1030.0 |
| 20260506014606 | 25 | 283 | 1.6 | 1.6 | 0.00 | 0.00 | 0.00 | 63 | 1030.0 |
| 20260506014101 | 25 | 119 | 0.0 | 0.0 | 0.00 | 0.00 | 0.00 | 63 | 1030.0 |
| 20260506013559 | 25 | 212 | 1.6 | 4.8 | 0.00 | 0.00 | 0.00 | 62 | 1029.8 |
| 20260506013055 | 25 | 247 | 0.0 | 1.6 | 0.00 | 0.00 | 0.00 | 62 | 1029.6 |
| 20260506012552 | 25 | 200 | 0.0 | 1.6 | 0.00 | 0.00 | 0.00 | 61 | 1029.5 |
| 20260506012048 | 26 | 260 | 0.0 | 3.2 | 0.00 | 0.00 | 0.00 | 61 | 1029.5 |
| 20260506011547 | 26 | 229 | 0.0 | 1.6 | 0.00 | 0.00 | 0.00 | 61 | 1029.5 |
| 20260506011042 | 26 | 224 | 0.0 | 1.6 | 0.00 | 0.00 | 0.00 | 61 | 1029.8 |
| 20260506010542 | 26 | 202 | 0.0 | 0.0 | 0.00 | 0.00 | 0.00 | 60 | 1029.6 |
| 20260506010038 | 26 | 237 | 1.6 | 1.6 | 0.00 | 0.00 | 0.00 | 60 | 1029.4 |
| 20260506005535 | 26 | 276 | 0.0 | 1.6 | 0.00 | 0.00 | 0.00 | 60 | 1029.1 |
| 20260506005031 | 27 | 251 | 0.0 | 0.0 | 0.00 | 0.00 | 0.00 | 58 | 1028.8 |
| 20260506004529 | 27 | 251 | 0.0 | 1.6 | 0.00 | 0.00 | 0.00 | 58 | 1029.0 |
| 20260506004025 | 27 | 209 | 1.6 | 3.2 | 0.00 | 0.00 | 0.00 | 58 | 1029.3 |
| 20260506003522 | 27 | 229 | 0.0 | 1.6 | 0.00 | 0.00 | 0.00 | 58 | 1028.9 |
| 20260506003018 | 27 | 216 | 0.0 | 1.6 | 0.00 | 0.00 | 0.00 | 58 | 1029.0 |
| 20260506002514 | 28 | 351 | 0.0 | 1.6 | 0.00 | 0.00 | 0.00 | 57 | 1028.8 |
| 20260506002009 | 28 | 249 | 0.0 | 1.6 | 0.00 | 0.00 | 0.00 | 58 | 1028.9 |
| 20260506001506 | 28 | 259 | 0.0 | 0.0 | 0.00 | 0.00 | 0.00 | 57 | 1029.2 |
| 20260506001004 | 29 | 277 | 0.0 | 3.2 | 0.00 | 0.00 | 0.00 | 59 | 1028.9 |
| 20260506000501 | 29 | 189 | 1.6 | 3.2 | 0.00 | 0.00 | 0.00 | 66 | 1028.8 |
| 20260505235958 | 29 | 4 | 3.2 | 3.2 | 0.00 | 0.00 | 0.00 | 66 | 1028.4 |
| 20260505235456 | 30 | 157 | 3.2 | 4.8 | 0.00 | 0.00 | 0.00 | 65 | 1028.3 |
| 20260505234952 | 30 | 262 | 1.6 | 1.6 | 0.00 | 0.00 | 0.00 | 66 | 1028.4 |
| 20260505234450 | 30 | 184 | 0.0 | 1.6 | 0.00 | 0.00 | 0.00 | 65 | 1028.3 |
| 20260505233947 | 30 | 220 | 1.6 | 4.8 | 0.00 | 0.00 | 0.00 | 65 | 1028.0 |
| 20260505233444 | 30 | 249 | 6.4 | 9.7 | 0.00 | 0.00 | 0.00 | 64 | 1028.2 |
| 20260505232941 | 30 | 180 | 4.8 | 12.9 | 0.00 | 0.00 | 0.00 | 64 | 1028.0 |
| 20260505232440 | 30 | 163 | 3.2 | 11.3 | 0.00 | 0.00 | 0.00 | 63 | 1027.8 |
| 20260505231936 | 31 | 131 | 6.4 | 11.3 | 0.00 | 0.00 | 0.00 | 62 | 1027.7 |
| 20260505231433 | 31 | 162 | 3.2 | 9.7 | 0.00 | 0.00 | 0.00 | 62 | 1027.9 |
| 20260505230932 | 31 | 209 | 3.2 | 12.9 | 0.00 | 0.00 | 0.00 | 62 | 1028.0 |
| 20260505230429 | 31 | 207 | 3.2 | 12.9 | 0.00 | 0.00 | 0.00 | 61 | 1028.1 |
| 20260505225925 | 31 | 172 | 4.8 | 9.7 | 0.00 | 0.00 | 0.00 | 59 | 1027.9 |
| 20260505225423 | 32 | 199 | 6.4 | 11.3 | 0.00 | 0.00 | 0.00 | 55 | 1027.5 |
| 20260505224918 | 32 | 179 | 3.2 | 9.7 | 0.00 | 0.00 | 0.00 | 53 | 1027.4 |
| 20260505224415 | 32 | 176 | 3.2 | 9.7 | 0.00 | 0.00 | 0.00 | 54 | 1027.5 |
| 20260505223912 | 32 | 206 | 8.0 | 11.3 | 0.00 | 0.00 | 0.00 | 54 | 1027.6 |
| 20260505223409 | 32 | 197 | 3.2 | 12.9 | 0.00 | 0.00 | 0.00 | 54 | 1027.6 |
| 20260505222905 | 32 | 143 | 3.2 | 4.8 | 0.00 | 0.00 | 0.00 | 54 | 1027.6 |
| 20260505222402 | 32 | 177 | 3.2 | 11.3 | 0.00 | 0.00 | 0.00 | 54 | 1027.6 |
| 20260505221858 | 32 | 189 | 3.2 | 9.7 | 0.00 | 0.00 | 0.00 | 54 | 1027.4 |
| 20260505221355 | 32 | 147 | 6.4 | 11.3 | 0.00 | 0.00 | 0.00 | 53 | 1027.4 |
| 20260505220852 | 32 | 242 | 3.2 | 6.4 | 0.00 | 0.00 | 0.00 | 52 | 1027.6 |
| 20260505220349 | 32 | 231 | 3.2 | 4.8 | 0.00 | 0.00 | 0.00 | 51 | 1027.3 |
| 20260505215847 | 32 | 230 | 0.0 | 3.2 | 0.00 | 0.00 | 0.00 | 50 | 1027.3 |
| 20260505215345 | 33 | 159 | 6.4 | 12.9 | 0.00 | 0.00 | 0.00 | 49 | 1027.3 |
| 20260505214843 | 33 | 220 | 0.0 | 9.7 | 0.00 | 0.00 | 0.00 | 49 | 1027.2 |
| 20260505214340 | 33 | 149 | 3.2 | 4.8 | 0.00 | 0.00 | 0.00 | 48 | 1027.4 |
| 20260505213837 | 33 | 277 | 1.6 | 4.8 | 0.00 | 0.00 | 0.00 | 50 | 1027.5 |
| 20260505213335 | 33 | 168 | 3.2 | 4.8 | 0.00 | 0.00 | 0.00 | 50 | 1027.3 |
| 20260505212831 | 33 | 159 | 1.6 | 4.8 | 0.00 | 0.00 | 0.00 | 49 | 1027.5 |
| 20260505212328 | 32 | 146 | 0.0 | 4.8 | 0.00 | 0.00 | 0.00 | 50 | 1027.8 |
| 20260505211824 | 33 | 260 | 3.2 | 6.4 | 0.00 | 0.00 | 0.00 | 50 | 1027.8 |
| 20260505211322 | 32 | 292 | 1.6 | 3.2 | 0.00 | 0.00 | 0.00 | 51 | 1027.9 |
| 20260505210818 | 32 | 148 | 1.6 | 3.2 | 0.00 | 0.00 | 0.00 | 53 | 1028.0 |
| 20260505210315 | 33 | 231 | 1.6 | 3.2 | 0.00 | 0.00 | 0.00 | 53 | 1027.8 |
| 20260505205812 | 33 | 240 | 1.6 | 3.2 | 0.00 | 0.00 | 0.00 | 51 | 1028.1 |
| 20260505205310 | 32 | 189 | 3.2 | 4.8 | 0.00 | 0.00 | 0.00 | 51 | 1028.0 |
| 20260505204807 | 32 | 168 | 3.2 | 11.3 | 0.00 | 0.00 | 0.00 | 50 | 1028.2 |
| 20260505204304 | 32 | 180 | 1.6 | 4.8 | 0.00 | 0.00 | 0.00 | 53 | 1028.2 |
| 20260505203801 | 32 | 125 | 0.0 | 4.8 | 0.00 | 0.00 | 0.00 | 54 | 1028.2 |
| 20260505203258 | 32 | 192 | 3.2 | 11.3 | 0.00 | 0.00 | 0.00 | 53 | 1028.4 |
| 20260505202754 | 32 | 214 | 3.2 | 9.7 | 0.00 | 0.00 | 0.00 | 53 | 1028.4 |
| 20260505202251 | 32 | 156 | 1.6 | 3.2 | 0.00 | 0.00 | 0.00 | 54 | 1028.4 |
| 20260505201747 | 32 | 195 | 3.2 | 6.4 | 0.00 | 0.00 | 0.00 | 52 | 1028.5 |
| 20260505201245 | 32 | 263 | 3.2 | 11.3 | 0.00 | 0.00 | 0.00 | 53 | 1028.6 |
| 20260505200743 | 32 | 189 | 3.2 | 4.8 | 0.00 | 0.00 | 0.00 | 53 | 1028.7 |
| 20260505200240 | 32 | 227 | 1.6 | 4.8 | 0.00 | 0.00 | 0.00 | 54 | 1028.7 |
| 20260505195735 | 32 | 173 | 1.6 | 4.8 | 0.00 | 0.00 | 0.00 | 55 | 1028.6 |
| 20260505195233 | 32 | 192 | 3.2 | 3.2 | 0.00 | 0.00 | 0.00 | 55 | 1028.6 |
| 20260505194730 | 32 | 278 | 1.6 | 9.7 | 0.00 | 0.00 | 0.00 | 54 | 1028.7 |
| 20260505194226 | 32 | 277 | 1.6 | 9.7 | 0.00 | 0.00 | 0.00 | 56 | 1028.8 |
| 20260505193722 | 31 | 267 | 0.0 | 6.4 | 0.00 | 0.00 | 0.00 | 56 | 1028.6 |
| 20260505193220 | 31 | 264 | 3.2 | 11.3 | 0.00 | 0.00 | 0.00 | 56 | 1029.0 |
| 20260505192718 | 31 | 231 | 1.6 | 4.8 | 0.00 | 0.00 | 0.00 | 56 | 1028.8 |
| 20260505192215 | 31 | 283 | 3.2 | 11.3 | 0.00 | 0.00 | 0.00 | 57 | 1028.5 |
| 20260505191714 | 31 | 236 | 4.8 | 11.3 | 0.00 | 0.00 | 0.00 | 57 | 1028.6 |
| 20260505191212 | 31 | 321 | 1.6 | 4.8 | 0.00 | 0.00 | 0.00 | 58 | 1028.7 |
| 20260505190708 | 31 | 186 | 6.4 | 11.3 | 0.00 | 0.00 | 0.00 | 58 | 1028.8 |
| 20260505190207 | 31 | 163 | 8.0 | 11.3 | 0.00 | 0.00 | 0.00 | 56 | 1029.0 |
| 20260505185704 | 31 | 259 | 3.2 | 6.4 | 0.00 | 0.00 | 0.00 | 57 | 1029.0 |
| 20260505185201 | 31 | 204 | 4.8 | 4.8 | 0.00 | 0.00 | 0.00 | 60 | 1029.2 |
| 20260505184657 | 30 | 265 | 3.2 | 6.4 | 0.00 | 0.00 | 0.00 | 59 | 1029.1 |
| 20260505184154 | 30 | 140 | 4.8 | 9.7 | 0.00 | 0.00 | 0.00 | 61 | 1029.2 |
| 20260505183651 | 30 | 293 | 1.6 | 6.4 | 0.00 | 0.00 | 0.00 | 61 | 1029.2 |
| 20260505183149 | 30 | 151 | 0.0 | 3.2 | 0.00 | 0.00 | 0.00 | 62 | 1029.2 |
| 20260505182645 | 30 | 220 | 4.8 | 9.7 | 0.00 | 0.00 | 0.00 | 60 | 1029.3 |
| 20260505182142 | 30 | 268 | 3.2 | 12.9 | 0.00 | 0.00 | 0.00 | 61 | 1029.3 |
| 20260505181638 | 30 | 237 | 6.4 | 14.5 | 0.00 | 0.00 | 0.00 | 60 | 1029.2 |
| 20260505181136 | 30 | 225 | 0.0 | 11.3 | 0.00 | 0.00 | 0.00 | 63 | 1029.5 |
| 20260505180632 | 30 | 151 | 4.8 | 11.3 | 0.00 | 0.00 | 0.00 | 62 | 1029.4 |
| 20260505180129 | 30 | 145 | 1.6 | 6.4 | 0.00 | 0.00 | 0.00 | 63 | 1029.4 |
| 20260505175625 | 29 | 171 | 1.6 | 4.8 | 0.00 | 0.00 | 0.00 | 63 | 1029.4 |
| 20260505175122 | 29 | 204 | 1.6 | 11.3 | 0.00 | 0.00 | 0.00 | 63 | 1029.4 |
| 20260505174618 | 29 | 118 | 4.8 | 11.3 | 0.00 | 0.00 | 0.00 | 63 | 1029.2 |
| 20260505174114 | 28 | 157 | 4.8 | 9.7 | 0.00 | 0.00 | 0.00 | 64 | 1029.4 |
| 20260505173611 | 28 | 183 | 3.2 | 6.4 | 0.00 | 0.00 | 0.00 | 64 | 1029.4 |
| 20260505173108 | 28 | 146 | 8.0 | 14.5 | 0.00 | 0.00 | 0.00 | 63 | 1029.5 |
| 20260505172606 | 28 | 154 | 3.2 | 6.4 | 0.00 | 0.00 | 0.00 | 64 | 1029.5 |
| 20260505172102 | 28 | 152 | 1.6 | 6.4 | 0.00 | 0.00 | 0.00 | 64 | 1029.6 |